| time (UTC) | temp F | wind direction | speed knots | gust knots | rain 1hr in | rain 24hr in | rain mn in | humidity % | barometer mb |
| 20260906215036 | 81 | 210 | 7.0 | 10.4 | 0.00 | 0.00 | 0.00 | 19 | 1025.0 |
| 20260906214019 | 82 | 249 | 7.8 | 13.0 | 0.00 | 0.00 | 0.00 | 15 | 1025.0 |
| 20260906213039 | 82 | 260 | 7.8 | 13.0 | 0.00 | 0.00 | 0.00 | 14 | 1025.1 |
| 20260906212017 | 82 | 273 | 11.3 | 17.4 | 0.00 | 0.00 | 0.00 | 15 | 1025.1 |
| 20260906211017 | 82 | 279 | 10.4 | 17.4 | 0.00 | 0.00 | 0.00 | 15 | 1025.1 |
| 20260906210020 | 81 | 270 | 6.1 | 12.2 | 0.00 | 0.00 | 0.00 | 17 | 1025.3 |
| 20260906205017 | 80 | 290 | 8.7 | 13.0 | 0.00 | 0.00 | 0.00 | 15 | 1025.3 |
| 20260906204113 | 80 | 275 | 11.3 | 16.5 | 0.00 | 0.00 | 0.00 | 15 | 1025.3 |
| 20260906203018 | 79 | 230 | 6.1 | 9.6 | 0.00 | 0.00 | 0.00 | 19 | 1025.4 |
| 20260906202017 | 78 | 188 | 8.7 | 12.2 | 0.00 | 0.00 | 0.00 | 24 | 1025.4 |
| 20260906201018 | 79 | 200 | 8.7 | 13.9 | 0.00 | 0.00 | 0.00 | 23 | 1025.5 |
| 20260906200018 | 80 | 176 | 6.1 | 12.2 | 0.00 | 0.00 | 0.00 | 23 | 1025.5 |
| 20260906195018 | 80 | 187 | 10.4 | 18.2 | 0.00 | 0.00 | 0.00 | 23 | 1025.7 |
| 20260906194020 | 79 | 183 | 9.6 | 15.6 | 0.00 | 0.00 | 0.00 | 23 | 1025.7 |
| 20260906193019 | 78 | 151 | 6.1 | 9.6 | 0.00 | 0.00 | 0.00 | 26 | 1025.9 |
| 20260906192019 | 79 | 196 | 6.1 | 10.4 | 0.00 | 0.00 | 0.00 | 21 | 1026.1 |
| 20260906191019 | 80 | 204 | 7.8 | 12.2 | 0.00 | 0.00 | 0.00 | 21 | 1026.2 |
| 20260906190019 | 80 | 224 | 8.7 | 13.9 | 0.00 | 0.00 | 0.00 | 19 | 1026.2 |
| 20260906185036 | 80 | 210 | 9.6 | 15.6 | 0.00 | 0.00 | 0.00 | 20 | 1026.3 |
| 20260906184017 | 79 | 181 | 11.3 | 14.8 | 0.00 | 0.00 | 0.00 | 22 | 1026.5 |
| 20260906183020 | 79 | 181 | 11.3 | 17.4 | 0.00 | 0.00 | 0.00 | 20 | 1026.6 |
| 20260906182020 | 79 | 180 | 12.2 | 20.9 | 0.00 | 0.00 | 0.00 | 21 | 1026.8 |
| 20260906181017 | 78 | 178 | 12.2 | 17.4 | 0.00 | 0.00 | 0.00 | 21 | 1027.0 |
| 20260906180017 | 78 | 184 | 11.3 | 18.2 | 0.00 | 0.00 | 0.00 | 22 | 1027.1 |
| 20260906175016 | 78 | 178 | 11.3 | 14.8 | 0.00 | 0.00 | 0.00 | 23 | 1027.2 |
| 20260906174018 | 77 | 179 | 6.1 | 10.4 | 0.00 | 0.00 | 0.00 | 24 | 1027.4 |
| 20260906173038 | 77 | 180 | 9.6 | 13.9 | 0.00 | 0.00 | 0.00 | 25 | 1027.5 |
| 20260906172018 | 77 | 208 | 6.1 | 11.3 | 0.00 | 0.00 | 0.00 | 28 | 1027.6 |
| 20260906171017 | 77 | 224 | 6.1 | 9.6 | 0.00 | 0.00 | 0.00 | 27 | 1027.6 |
| 20260906170017 | 77 | 210 | 7.8 | 13.9 | 0.00 | 0.00 | 0.00 | 28 | 1027.6 |
| 20260906165019 | 76 | 184 | 11.3 | 16.5 | 0.00 | 0.00 | 0.00 | 29 | 1027.6 |
| 20260906164017 | 75 | 191 | 10.4 | 13.9 | 0.00 | 0.00 | 0.00 | 31 | 1027.7 |
| 20260906163017 | 74 | 191 | 8.7 | 13.9 | 0.00 | 0.00 | 0.00 | 31 | 1027.7 |
| 20260906162017 | 74 | 193 | 9.6 | 13.0 | 0.00 | 0.00 | 0.00 | 32 | 1027.8 |
| 20260906161017 | 74 | 208 | 8.7 | 13.0 | 0.00 | 0.00 | 0.00 | 33 | 1027.8 |
| 20260906160018 | 73 | 194 | 7.8 | 10.4 | 0.00 | 0.00 | 0.00 | 35 | 1027.8 |
| 20260906155018 | 72 | 199 | 6.1 | 9.6 | 0.00 | 0.00 | 0.00 | 36 | 1027.7 |
| 20260906154020 | 71 | 174 | 6.1 | 8.7 | 0.00 | 0.00 | 0.00 | 37 | 1027.7 |
| 20260906153018 | 70 | 187 | 4.3 | 8.7 | 0.00 | 0.00 | 0.00 | 39 | 1027.7 |
| 20260906152019 | 69 | 181 | 4.3 | 7.0 | 0.00 | 0.00 | 0.00 | 41 | 1027.7 |
| 20260906151020 | 67 | 142 | 5.2 | 7.0 | 0.00 | 0.00 | 0.00 | 47 | 1027.8 |
| 20260906150020 | 67 | 183 | 2.6 | 5.2 | 0.00 | 0.00 | 0.00 | 44 | 1028.0 |
| 20260906145020 | 66 | 193 | 2.6 | 3.5 | 0.00 | 0.00 | 0.00 | 45 | 1028.0 |
| 20260906144040 | 65 | 187 | 1.7 | 2.6 | 0.00 | 0.00 | 0.00 | 47 | 1028.1 |
| 20260906143040 | 63 | 171 | 3.5 | 4.3 | 0.00 | 0.00 | 0.00 | 49 | 1028.1 |
| 20260906142100 | 62 | 168 | 3.5 | 6.1 | 0.00 | 0.00 | 0.00 | 51 | 1028.2 |
| 20260906141020 | 60 | 159 | 3.5 | 4.3 | 0.00 | 0.00 | 0.00 | 55 | 1028.2 |
| 20260906140020 | 58 | 172 | 3.5 | 5.2 | 0.00 | 0.00 | 0.00 | 58 | 1028.2 |
| 20260906135020 | 56 | 175 | 2.6 | 3.5 | 0.00 | 0.00 | 0.00 | 60 | 1028.1 |
| 20260906134020 | 55 | 157 | 1.7 | 2.6 | 0.00 | 0.00 | 0.00 | 62 | 1028.1 |
| 20260906133021 | 53 | 181 | 1.7 | 3.5 | 0.00 | 0.00 | 0.00 | 64 | 1028.1 |
| 20260906132022 | 51 | 149 | 1.7 | 4.3 | 0.00 | 0.00 | 0.00 | 69 | 1028.0 |
| 20260906131022 | 49 | 161 | 2.6 | 3.5 | 0.00 | 0.00 | 0.00 | 72 | 1028.0 |
| 20260906130021 | 47 | 202 | 2.6 | 4.3 | 0.00 | 0.00 | 0.00 | 76 | 1028.0 |
| 20260906125021 | 47 | 113 | 1.7 | 2.6 | 0.00 | 0.00 | 0.00 | 76 | 1027.9 |
| 20260906124022 | 47 | 106 | 0.9 | 1.7 | 0.00 | 0.00 | 0.00 | 75 | 1028.0 |
| 20260906123042 | 46 | 191 | 2.6 | 4.3 | 0.00 | 0.00 | 0.00 | 76 | 1027.9 |
| 20260906122018 | 46 | 158 | 2.6 | 4.3 | 0.00 | 0.00 | 0.00 | 77 | 1027.9 |
| 20260906121018 | 48 | 149 | 3.5 | 5.2 | 0.00 | 0.00 | 0.00 | 73 | 1028.0 |
| 20260906120042 | 48 | 120 | 1.7 | 2.6 | 0.00 | 0.00 | 0.00 | 73 | 1027.9 |
| 20260906115023 | 50 | 162 | 2.6 | 4.3 | 0.00 | 0.00 | 0.00 | 69 | 1027.9 |
| 20260906114023 | 50 | 90 | 0.9 | 1.7 | 0.00 | 0.00 | 0.00 | 69 | 1027.8 |
| 20260906113019 | 49 | 158 | 3.5 | 7.8 | 0.00 | 0.00 | 0.00 | 69 | 1027.7 |
| 20260906112023 | 49 | 155 | 3.5 | 4.3 | 0.00 | 0.00 | 0.00 | 72 | 1027.6 |
| 20260906111019 | 49 | 157 | 3.5 | 6.1 | 0.00 | 0.00 | 0.00 | 72 | 1027.6 |
| 20260906110024 | 50 | 165 | 1.7 | 4.3 | 0.00 | 0.00 | 0.00 | 70 | 1027.5 |
| 20260906105024 | 50 | 194 | 1.7 | 3.5 | 0.00 | 0.00 | 0.00 | 71 | 1027.4 |
| 20260906104024 | 50 | 333 | 0.0 | 0.9 | 0.00 | 0.00 | 0.00 | 72 | 1027.4 |
| 20260906103024 | 51 | 114 | 0.9 | 1.7 | 0.00 | 0.00 | 0.00 | 72 | 1027.4 |
| 20260906102024 | 52 | 234 | 1.7 | 3.5 | 0.00 | 0.00 | 0.00 | 69 | 1027.3 |
| 20260906101021 | 52 | 157 | 3.5 | 5.2 | 0.00 | 0.00 | 0.00 | 69 | 1027.3 |
| 20260906100020 | 52 | 146 | 3.5 | 5.2 | 0.00 | 0.00 | 0.00 | 70 | 1027.3 |
| 20260906095021 | 53 | 152 | 4.3 | 7.0 | 0.00 | 0.00 | 0.00 | 68 | 1027.2 |
| 20260906094041 | 55 | 150 | 4.3 | 6.1 | 0.00 | 0.00 | 0.00 | 65 | 1027.2 |
| 20260906093021 | 57 | 141 | 4.3 | 6.1 | 0.00 | 0.00 | 0.00 | 61 | 1027.3 |
| 20260906092025 | 57 | 118 | 1.7 | 3.5 | 0.00 | 0.00 | 0.00 | 61 | 1027.2 |
| 20260906091025 | 58 | 206 | 0.9 | 1.7 | 0.00 | 0.00 | 0.00 | 57 | 1027.2 |
| 20260906090022 | 57 | 264 | 2.6 | 5.2 | 0.00 | 0.00 | 0.00 | 60 | 1027.1 |
| 20260906085021 | 59 | 155 | 6.1 | 7.8 | 0.00 | 0.00 | 0.00 | 56 | 1026.8 |
| 20260906084021 | 59 | 154 | 7.0 | 8.7 | 0.00 | 0.00 | 0.00 | 55 | 1026.8 |
| 20260906083022 | 59 | 153 | 6.1 | 7.8 | 0.00 | 0.00 | 0.00 | 56 | 1026.9 |
| 20260906082042 | 59 | 153 | 6.1 | 7.8 | 0.00 | 0.00 | 0.00 | 55 | 1026.9 |
| 20260906081056 | 59 | 153 | 7.0 | 8.7 | 0.00 | 0.00 | 0.00 | 54 | 1026.9 |
| 20260906075511 | 0 | 159 | 7.8 | 7.8 | 0.00 | 0.00 | 0.00 | ||
| 20260906073605 | 0 | 155 | 7.8 | 7.8 | 0.00 | 0.00 | 0.00 | ||
| 20260906072536 | 0 | 156 | 6.1 | 7.8 | 0.00 | 0.00 | 0.00 | ||
| 20260906071517 | 58 | 161 | 5.2 | 7.8 | 0.00 | 0.00 | 0.00 | 58 | 1026.9 |
| 20260906070538 | 58 | 165 | 5.2 | 7.0 | 0.00 | 0.00 | 0.00 | 57 | 1026.8 |
| 20260906065518 | 57 | 166 | 4.3 | 7.8 | 0.00 | 0.00 | 0.00 | 59 | 1026.9 |
| 20260906064518 | 56 | 141 | 3.5 | 5.2 | 0.00 | 0.00 | 0.00 | 60 | 1027.0 |
| 20260906063528 | 55 | 124 | 1.7 | 3.5 | 0.00 | 0.00 | 0.00 | 65 | 1027.0 |
| 20260906062518 | 56 | 145 | 3.5 | 4.3 | 0.00 | 0.00 | 0.00 | 63 | 1027.0 |
| 20260906061518 | 56 | 165 | 2.6 | 4.3 | 0.00 | 0.00 | 0.00 | 64 | 1027.0 |
| 20260906060529 | 58 | 179 | 1.7 | 2.6 | 0.00 | 0.00 | 0.00 | 60 | 1027.0 |
| 20260906055539 | 59 | 139 | 2.6 | 7.0 | 0.00 | 0.00 | 0.00 | 55 | 1026.8 |
| 20260906054519 | 58 | 148 | 4.3 | 7.8 | 0.00 | 0.00 | 0.00 | 59 | 1026.9 |
| 20260906053519 | 59 | 190 | 3.5 | 5.2 | 0.00 | 0.00 | 0.00 | 58 | 1027.0 |
| 20260906052520 | 59 | 190 | 3.5 | 5.2 | 0.00 | 0.00 | 0.00 | 59 | 1027.1 |
| 20260906051519 | 60 | 143 | 3.5 | 4.3 | 0.00 | 0.00 | 0.00 | 57 | 1027.2 |
| 20260906050526 | 59 | 150 | 3.5 | 6.1 | 0.00 | 0.00 | 0.00 | 58 | 1027.2 |
| 20260906045520 | 60 | 151 | 4.3 | 5.2 | 0.00 | 0.00 | 0.00 | 56 | 1027.2 |
| 20260906044541 | 60 | 142 | 3.5 | 5.2 | 0.00 | 0.00 | 0.00 | 59 | 1027.2 |
| 20260906043517 | 61 | 144 | 3.5 | 4.3 | 0.00 | 0.00 | 0.00 | 56 | 1027.3 |
| 20260906042517 | 62 | 135 | 2.6 | 3.5 | 0.00 | 0.00 | 0.00 | 54 | 1027.5 |
| 20260906041518 | 62 | 117 | 0.9 | 1.7 | 0.00 | 0.00 | 0.00 | 53 | 1027.4 |
| 20260906040538 | 62 | 130 | 1.7 | 2.6 | 0.00 | 0.00 | 0.00 | 53 | 1027.4 |
| 20260906035601 | 63 | 4 | 3.5 | 6.1 | 0.00 | 0.00 | 0.00 | 53 | 1027.4 |
| 20260906034521 | 64 | 155 | 4.3 | 5.2 | 0.00 | 0.00 | 0.00 | 51 | 1027.2 |
| 20260906033522 | 64 | 152 | 6.1 | 7.0 | 0.00 | 0.00 | 0.00 | 50 | 1027.0 |
| 20260906032522 | 64 | 159 | 4.3 | 7.0 | 0.00 | 0.00 | 0.00 | 51 | 1027.0 |
| 20260906031542 | 64 | 140 | 3.5 | 4.3 | 0.00 | 0.00 | 0.00 | 50 | 1027.0 |
| 20260906030519 | 65 | 141 | 3.5 | 4.3 | 0.00 | 0.00 | 0.00 | 49 | 1026.9 |
| 20260906025519 | 66 | 122 | 2.6 | 4.3 | 0.00 | 0.00 | 0.00 | 48 | 1026.8 |
| 20260906024600 | 66 | 135 | 2.6 | 4.3 | 0.00 | 0.00 | 0.00 | 48 | 1026.7 |
| 20260906023520 | 65 | 137 | 2.6 | 3.5 | 0.00 | 0.00 | 0.00 | 49 | 1026.4 |
| 20260906022600 | 67 | 144 | 2.6 | 3.5 | 0.00 | 0.00 | 0.00 | 48 | 1026.3 |
| 20260906021523 | 67 | 176 | 3.5 | 5.2 | 0.00 | 0.00 | 0.00 | 45 | 1026.2 |
| 20260906020537 | 69 | 178 | 3.5 | 5.2 | 0.00 | 0.00 | 0.00 | 44 | 1026.0 |
| 20260906015517 | 69 | 201 | 3.5 | 4.3 | 0.00 | 0.00 | 0.00 | 43 | 1026.0 |
| 20260906014518 | 70 | 208 | 4.3 | 6.1 | 0.00 | 0.00 | 0.00 | 42 | 1025.9 |
| 20260906013524 | 71 | 209 | 3.5 | 5.2 | 0.00 | 0.00 | 0.00 | 41 | 1025.9 |
| 20260906012544 | 72 | 185 | 3.5 | 4.3 | 0.00 | 0.02 | 0.00 | 40 | 1025.8 |
| 20260906011518 | 73 | 173 | 4.3 | 6.1 | 0.00 | 0.02 | 0.00 | 39 | 1025.6 |
| 20260906010518 | 73 | 179 | 6.1 | 8.7 | 0.00 | 0.03 | 0.00 | 38 | 1025.6 |
| 20260906005518 | 74 | 181 | 6.1 | 8.7 | 0.00 | 0.03 | 0.00 | 37 | 1025.5 |
| 20260906004519 | 75 | 177 | 5.2 | 8.7 | 0.00 | 0.03 | 0.00 | 36 | 1025.5 |
| 20260906003519 | 76 | 171 | 7.0 | 8.7 | 0.00 | 0.03 | 0.00 | 35 | 1025.5 |
| 20260906002519 | 75 | 180 | 7.8 | 12.2 | 0.00 | 0.03 | 0.00 | 35 | 1025.4 |
| 20260906001519 | 76 | 179 | 7.8 | 10.4 | 0.00 | 0.03 | 0.00 | 35 | 1025.2 |
| 20260906000520 | 77 | 173 | 11.3 | 15.6 | 0.00 | 0.03 | 0.00 | 33 | 1025.1 |
| 20260905235520 | 78 | 168 | 9.6 | 14.8 | 0.00 | 0.03 | 0.00 | 32 | 1025.1 |
| 20260905234520 | 78 | 176 | 11.3 | 15.6 | 0.00 | 0.03 | 0.00 | 32 | 1025.0 |
| 20260905233520 | 79 | 186 | 9.6 | 15.6 | 0.00 | 0.03 | 0.00 | 30 | 1025.1 |
| 20260905232520 | 80 | 167 | 6.1 | 11.3 | 0.00 | 0.03 | 0.00 | 28 | 1025.0 |
| 20260905231517 | 80 | 191 | 6.1 | 12.2 | 0.00 | 0.03 | 0.00 | 30 | 1025.0 |
| 20260905230517 | 79 | 106 | 7.0 | 14.8 | 0.00 | 0.03 | 0.00 | 30 | 1025.1 |
| 20260905225520 | 79 | 55 | 8.7 | 13.9 | 0.00 | 0.03 | 0.00 | 32 | 1025.1 |
| 20260905224518 | 78 | 57 | 9.6 | 13.9 | 0.00 | 0.03 | 0.00 | 32 | 1025.2 |
| 20260905223518 | 78 | 47 | 13.9 | 18.2 | 0.00 | 0.03 | 0.00 | 33 | 1025.1 |
| 20260905222538 | 78 | 46 | 10.4 | 14.8 | 0.00 | 0.03 | 0.00 | 34 | 1025.1 |
| 20260905221518 | 79 | 151 | 4.3 | 8.7 | 0.00 | 0.03 | 0.00 | 22 | 1025.2 |
| 20260905220519 | 79 | 164 | 6.1 | 8.7 | 0.00 | 0.03 | 0.00 | 24 | 1025.2 |
| 20260905215519 | 79 | 173 | 7.0 | 9.6 | 0.00 | 0.03 | 0.00 | 24 | 1025.3 |